Souda, Greece

1:37 PM EET on November 23, 2017 (GMT +0200)
Souda Air Base

Weather History for LGSA - February, 2013

Change the Weather History Date:

Monday, February 4, 2013

  Actual Average Record
Temperature  
Mean Temperature 59 °F -  
Max Temperature 68 °F 59 °F 69 °F (1998)
Min Temperature 50 °F 46 °F 39 °F (2007)
Degree Days  
Heating Degree Days 6    
Growing Degree Days 9 (Base 50)    
Moisture  
Dew Point 47 °F    
Average Humidity 69    
Maximum Humidity 88    
Minimum Humidity 35    
Precipitation  
Precipitation 0.00 in 0.14 in - ()
Sea Level Pressure  
Sea Level Pressure 29.92 in    
Wind  
Wind Speed 5 mph ()    
Max Wind Speed 16 mph    
Max Gust Speed -    
Visibility 6.2 miles    
Events      
Averages and records for this station are not official NWS values.
T = Trace of Precipitation, MM = Missing Value Source: Averaged Metar Reports

Daily Weather History Graph

Daily Weather History Graph

Search for Another Location

Airport or City:

Trip Planner

Search our weather history database for the weather conditions in past years. The results will help you decide how hot, cold, wet, or windy it might be!

Date:

Astronomy

Feb. 04, 2013 Rise Set
Actual Time 7:20 AM EET 5:54 PM EET
Civil Twilight 6:54 AM EET 6:21 PM EET
Nautical Twilight 6:23 AM EET 6:51 PM EET
Astronomical Twilight 5:54 AM EET 7:21 PM EET
Moon 1:33 AM EET (2/4) 12:05 PM EET (2/4)
Length of Visible Light 11h 26m
Length of Day
10h 33m
Last Quarter, 41% of the Moon is Illuminated
Feb 4
Last Quarter
Feb 10
New
Feb 17
First Quarter
Feb 25
Full
Mar 4
Last Quarter

Hourly Weather History & Observations

Time (EET) Temp. Dew Point Humidity Pressure Visibility Wind Dir Wind Speed Gust Speed Precip Events Conditions
12:20 AM 51.8 °F 46.4 °F 82% 29.95 in - Calm Calm - N/A   Clear
12:50 AM 51.8 °F 46.4 °F 82% 29.95 in - Calm Calm - N/A   Clear
1:20 AM 51.8 °F 46.4 °F 82% 29.95 in - East 5.8 mph - N/A   Clear
1:50 AM 51.8 °F 46.4 °F 82% 29.95 in - ESE 4.6 mph - N/A   Clear
2:00 AM 51 °F 46 °F 77% 29.96 in 6 mi ESE 4.6 mph - -   Clear
2:20 AM 51.8 °F 46.4 °F 82% 29.95 in - East 9.2 mph - N/A   Clear
2:50 AM 51.8 °F 46.4 °F 82% 29.95 in - East 9.2 mph - N/A   Clear
3:20 AM 51.8 °F 46.4 °F 82% 29.95 in - ESE 5.8 mph - N/A   Clear
3:50 AM 50.0 °F 46.4 °F 87% 29.95 in - East 10.4 mph - N/A   Clear
4:20 AM 50.0 °F 46.4 °F 87% 29.95 in - East 8.1 mph - N/A   Clear
4:50 AM 53.6 °F 46.4 °F 77% 29.92 in - ESE 5.8 mph - N/A   Clear
5:20 AM 53.6 °F 46.4 °F 77% 29.92 in - ESE 5.8 mph - N/A   Clear
5:50 AM 55.4 °F 44.6 °F 67% 29.92 in - ESE 4.6 mph - N/A   Clear
6:20 AM 55.4 °F 44.6 °F 67% 29.92 in - ESE 4.6 mph - N/A   Clear
6:50 AM 57.2 °F 44.6 °F 63% 29.92 in - East 6.9 mph - N/A   Clear
7:20 AM 59.0 °F 44.6 °F 59% 29.92 in - SE 5.8 mph - N/A   Clear
7:50 AM 60.8 °F 44.6 °F 55% 29.95 in - ESE 5.8 mph - N/A   Clear
8:00 AM 60 °F 44 °F 45% 29.94 in 6 mi ESE 5.8 mph - -   Clear
8:20 AM 60.8 °F 44.6 °F 55% 29.95 in - ESE 8.1 mph - N/A   Clear
8:50 AM 60.8 °F 44.6 °F 55% 29.95 in - South 8.1 mph - N/A   Clear
9:20 AM 60.8 °F 44.6 °F 55% 29.95 in - SSE 9.2 mph - N/A   Clear
9:50 AM 60.8 °F 46.4 °F 59% 29.95 in - SE 8.1 mph - N/A   Clear
10:20 AM 60.8 °F 46.4 °F 59% 29.95 in - SE 4.6 mph - N/A   Clear
10:50 AM 62.6 °F 46.4 °F 55% 29.95 in 6.2 mi SE 6.9 mph - N/A   Mostly Cloudy
11:20 AM 62.6 °F 46.4 °F 55% 29.95 in 6.2 mi SE 6.9 mph - N/A   Mostly Cloudy
12:50 PM 68.0 °F 46.4 °F 46% 29.92 in 6.2 mi SE 4.6 mph - N/A   Mostly Cloudy
1:20 PM 68.0 °F 46.4 °F 46% 29.92 in 6.2 mi WNW 12.7 mph - N/A   Mostly Cloudy
1:50 PM 66.2 °F 46.4 °F 49% 29.92 in 6.2 mi NW 9.2 mph - N/A   Mostly Cloudy
2:00 PM 67 °F 46 °F 35% 29.91 in 6 mi NW 9.2 mph - -   Scattered Clouds
2:20 PM 66.2 °F 46.4 °F 49% 29.92 in 6.2 mi West 8.1 mph - N/A   Mostly Cloudy
2:50 PM 66.2 °F 48.2 °F 52% 29.89 in 6.2 mi West 9.2 mph - N/A   Mostly Cloudy
3:20 PM 66.2 °F 48.2 °F 52% 29.89 in 6.2 mi West 9.2 mph - N/A   Mostly Cloudy
3:50 PM 66.2 °F 48.2 °F 52% 29.86 in 6.2 mi West 6.9 mph - N/A   Mostly Cloudy
4:20 PM 64.4 °F 48.2 °F 56% 29.86 in 6.2 mi West 4.6 mph - N/A   Scattered Clouds
4:50 PM 62.6 °F 51.8 °F 68% 29.89 in 6.2 mi Calm Calm - N/A   Scattered Clouds
5:20 PM 62.6 °F 51.8 °F 68% 29.89 in 6.2 mi SE 9.2 mph - N/A   Scattered Clouds
5:50 PM 62.6 °F 50.0 °F 63% 29.86 in 6.2 mi SE 16.1 mph - N/A   Scattered Clouds
6:20 PM 62.6 °F 50.0 °F 63% 29.86 in 6.2 mi SSE 11.5 mph - N/A   Scattered Clouds
6:50 PM 59.0 °F 48.2 °F 67% 29.86 in 6.2 mi South 13.8 mph - N/A   Partly Cloudy
7:20 PM 59.0 °F 48.2 °F 67% 29.86 in 6.2 mi SSE 4.6 mph - N/A   Partly Cloudy
7:50 PM 55.4 °F 51.8 °F 88% 29.89 in 6.2 mi Calm Calm - N/A   Partly Cloudy
8:00 PM 56 °F 52 °F 80% 29.91 in 6 mi Calm Calm - -   Scattered Clouds
8:20 PM 55.4 °F 51.8 °F 88% 29.89 in 6.2 mi West 4.6 mph - N/A   Partly Cloudy
8:50 PM 53.6 °F 50.0 °F 88% 29.92 in 6.2 mi Calm Calm - N/A   Partly Cloudy
9:20 PM 53.6 °F 50.0 °F 88% 29.92 in 6.2 mi Calm Calm - N/A   Partly Cloudy
9:50 PM 53.6 °F 50.0 °F 88% 29.92 in 6.2 mi WSW 4.6 mph - N/A   Partly Cloudy
10:20 PM 53.6 °F 50.0 °F 88% 29.92 in - Calm Calm - N/A   Clear
10:50 PM 51.8 °F 48.2 °F 88% 29.92 in - Calm Calm - N/A   Clear
11:20 PM 51.8 °F 48.2 °F 88% 29.92 in - NW 5.8 mph - N/A   Clear
11:50 PM 51.8 °F 48.2 °F 88% 29.92 in - Calm Calm - N/A   Clear